Dickinson Theodore Roosevelt Regional Airport Dickinson US
ICAO: KDIK
IATA: DIK
Category: Medium
Scheduled Services: No

Elevation: 2592 ft
TransAlt. 18000 ft.

Airport Communications:
MINNEAPOLIS CNTR:124.25
GRAND FORKS RDO:122.2
CTAF/UNICOM:123

KDIK Zoom In..

Runways:

(A) RW 07 length 4699 ft width 75 ft
---- / hdg 70

(B) RW 14 length 6399 ft width 100 ft
---- / hdg 140

(C) RW 25 length 4699 ft width 75 ft
---- / hdg 250

(D) RW 32 length 6399 ft width 100 ft
ILS 108.30 / hdg 320

Location; KDIK
Day. 23 / Time. 06.56 Zulu
* Altimeter: 30.21
* Temperature: 11° c. 51.8°f.
* Wind from: 200° Speed 03 kn.
Dewpoint: 08° c.
Visibility: 10 Statute Miles.
Clouds: Clear (automated report).

KDIK 230656Z AUTO 20003KT 10SM CLR 11/08 A3021 RMK AO2 SLP218 T01110083 402890106


Wind From 200°
Speed 03 kn.

 
 
jpsmedia.com for Web Design worldairports.se 2018   terms of use